Temperature
19 19 19 19 19 19 20 20 20 19 19 19 19 19 19 19 19 19 18 18 18 18 18 18 18 18 18 18 18 18 18 18 17 17 17 17 17 17 17 17 17 17 17
20 19 19 19 19 19 20 19 19 19 19 19 19 19 19 19 19 18 18 18 18 18 18 18 18 18 18 18 18 18 18 17 17 17 17 17 17 17 17 17 17 17 17
20 19 19 19 19 19 19 19 19 19 19 19 19 19 19 19 18 18 18 18 18 18 18 18 18 18 18 18 18 18 17 17 17 17 17 17 17 17 17 17 17 17 17
20 20 19 19 19 19 19 19 19 19 19 19 19 19 19 18 18 18 18 18 18 18 18 18 18 18 18 18 17 17 17 17 17 17 17 17 17 17 17 17 17 17 17
20 20 20 19 20 20 20 19 19 19 19 19 19 19 18 18 18 18 18 18 18 18 18 17 17 18 17 17 17 17 17 17 17 17 17 17 17 17 17 17 17 17 17
20 20 20 20 20 20 20 20 19 19 19 19 19 19 19 18 18 18 18 18 18 18 18 17 17 17 17 17 17 17 17 17 17 17 17 17 17 17 17 17 17 17 17
20 20 20 20 20 20 20 19 19 19 19 19 19 19 18 18 18 18 18 18 18 18 18 17 17 17 17 17 17 17 17 17 17 17 17 17 17 17 17 17 17 17 16
20 20 20 20 20 20 19 19 19 19 19 19 19 18 18 18 18 18 18 18 18 18 18 17 17 17 17 17 17 17 17 17 17 17 17 17 17 17 17 17 17 17 16
20 20 20 20 20 20 19 19 19 19 19 18 18 18 18 18 18 18 18 18 18 18 17 17 17 17 17 17 17 17 17 17 17 17 17 17 17 17 17 17 17 17 16
20 20 20 20 19 19 19 19 19 19 18 18 18 18 18 18 18 18 18 18 17 17 17 17 17 17 17 17 17 17 17 17 17 17 17 17 17 17 17 17 17 17 16
20 20 20 20 19 19 19 19 19 18 18 18 18 18 18 18 18 18 18 18 17 17 17 17 17 17 17 17 17 17 17 17 17 17 17 17 17 17 17 17 17 16 16
20 20 20 20 19 19 19 19 18 18 18 18 18 18 18 18 18 18 18 18 17 17 17 17 17 17 17 17 17 17 17 17 17 17 17 17 17 17 17 17 17 17 16
21 20 20 20 19 19 19 19 18 18 18 18 18 18 18 18 18 18 18 18 17 17 17 17 17 17 17 17 17 17 17 17 17 17 17 17 17 17 17 17 17 17 17
21 20 20 20 20 19 19 19 19 18 18 18 18 18 18 18 18 18 18 18 18 17 17 17 17 17 17 17 17 17 17 17 17 17 17 17 17 17 17 17 17 17 17
21 21 20 20 20 19 19 19 19 18 18 18 18 18 18 18 18 18 18 18 18 17 17 17 17 17 17 17 17 17 17 17 17 17 17 17 17 17 17 17 17 17 16
21 21 20 20 20 19 19 19 19 19 18 18 18 18 18 18 18 18 18 18 18 17 17 17 17 17 17 17 17 17 17 17 17 17 17 17 17 17 17 17 17 17 16
21 21 20 20 20 19 19 19 19 18 18 18 18 18 18 18 18 18 18 18 18 17 17 17 17 17 17 17 17 17 17 17 17 17 17 17 17 17 17 17 17 17 16
21 20 20 20 19 19 19 19 19 18 18 18 18 18 18 18 18 18 18 18 18 17 17 17 17 17 17 17 17 17 17 17 17 17 17 17 17 17 17 16 16 16 16
21 20 20 20 19 19 19 18 18 18 18 18 18 18 18 18 18 18 18 17 17 17 17 17 17 17 17 17 17 17 17 17 17 17 17 17 17 17 16 16 16 16 16
21 20 20 20 19 19 18 18 18 18 18 18 18 18 18 18 18 18 17 17 17 17 17 17 17 17 17 17 17 17 17 17 17 17 17 17 17 17 16 16 16 16 16
20 20 20 19 19 19 18 18 18 18 18 18 18 18 18 18 18 18 17 17 17 17 17 17 17 17 17 17 17 17 17 17 17 17 17 17 17 17 17 16 16 16 16
20 20 20 19 19 19 18 18 18 18 18 18 18 18 18 18 18 17 17 17 17 17 17 17 17 17 17 17 17 17 17 17 17 17 17 17 17 17 17 16 16 16 16
21 20 20 20 19 19 19 18 18 17 18 17 18 18 18 18 18 18 17 17 17 17 17 17 17 17 17 17 17 17 17 17 17 17 17 17 17 17 17 16 16 16 16
21 20 20 20 19 19 18 18 18 18 18 18 18 18 18 18 18 18 17 17 17 17 17 17 17 17 17 17 17 17 17 17 17 17 17 17 17 17 17 17 16 16 16
21 20 20 19 19 19 18 18 18 18 18 18 18 18 18 18 17 17 17 17 17 17 17 17 17 17 17 17 17 17 17 17 17 17 17 17 17 17 17 17 17 16 16
21 20 20 19 19 18 18 18 18 18 18 18 18 18 17 17 17 17 17 17 17 17 17 17 17 17 17 17 17 17 17 17 17 17 17 17 17 17 17 17 17 17 16
Wind_Speed
6 10 16 16 16 16 17 17 18 18 18 18 17 17 17 16 15 14 13 13 12 12 12 12 13 13 13 13 13 13 13 13 13 14 15 15 15 16 16 17 16 15 17
10 14 17 16 16 17 17 17 17 17 17 17 16 16 16 15 14 13 13 12 12 12 12 13 13 13 13 14 13 13 13 13 14 14 15 15 15 15 16 16 15 14 17
13 14 17 17 17 16 16 16 16 16 16 16 15 15 14 14 14 13 12 12 12 12 12 13 13 13 13 14 13 13 13 13 14 15 15 13 14 15 15 16 16 16 17
14 15 16 17 17 16 16 16 15 15 15 15 14 14 14 13 13 12 12 12 12 12 12 12 13 13 13 13 13 14 13 13 14 15 12 12 12 15 15 15 15 16 16
12 15 17 18 17 16 16 15 15 14 14 14 14 13 13 13 12 12 12 12 12 12 12 13 13 13 13 13 13 13 13 13 14 13 12 11 12 14 14 15 15 15 15
11 14 17 18 17 16 15 15 14 14 14 13 13 13 12 12 12 11 11 12 12 12 12 12 12 12 12 12 12 13 13 13 13 12 11 11 12 13 14 14 14 15 15
10 12 16 18 17 16 15 14 13 13 13 13 12 12 12 11 11 11 11 12 12 12 12 12 12 12 12 12 12 12 13 13 12 11 11 11 12 13 13 13 14 14 14
11 11 15 18 17 16 15 14 13 13 13 12 12 11 11 11 11 11 11 11 11 12 12 12 12 12 11 11 11 11 12 13 11 11 10 10 12 13 13 12 13 13 13
9 9 10 14 15 16 14 13 13 12 12 12 11 11 11 11 11 11 11 11 11 11 11 11 11 11 10 10 11 11 11 13 11 10 10 9 11 12 12 12 12 12 12
8 7 7 10 11 12 13 13 13 12 12 11 11 11 11 11 11 11 10 10 10 10 10 10 10 10 9 10 10 11 12 12 10 8 8 9 12 12 11 11 11 11 11
9 7 6 7 9 10 10 12 12 12 12 11 10 11 10 9 9 8 9 9 9 9 10 10 9 9 9 9 10 10 10 9 9 7 7 10 11 11 11 11 11 11 11
12 9 6 6 7 9 9 9 9 9 9 8 8 9 9 8 7 7 8 8 8 8 8 9 8 8 8 8 8 9 8 8 8 7 7 9 10 10 11 10 10 10 10
12 11 8 7 7 7 5 7 7 7 7 7 8 9 8 6 5 5 4 5 6 6 6 6 6 6 6 6 6 6 7 7 6 6 7 9 9 10 10 10 10 10 10
11 11 10 8 7 7 6 6 6 6 6 6 7 8 7 4 3 3 3 4 4 5 5 4 4 5 5 5 5 6 6 6 6 6 7 8 9 9 9 10 10 10 10
12 12 11 9 8 7 5 5 6 6 6 7 7 8 8 5 3 3 3 3 3 4 3 3 3 3 3 4 4 5 5 6 6 6 6 8 9 9 9 9 9 9 10
13 13 11 10 9 7 5 4 5 7 7 7 8 9 9 8 5 4 3 3 3 3 3 3 2 3 2 2 2 4 4 5 6 6 6 6 8 9 9 9 9 9 10
13 11 11 11 9 9 7 6 6 7 8 7 9 10 10 9 8 6 4 3 4 3 3 3 2 3 2 2 1 2 3 5 6 6 6 6 6 8 9 9 10 10 10
10 11 11 11 10 9 7 6 5 7 8 8 9 9 10 10 10 8 4 4 5 4 3 2 2 2 1 1 1 1 2 3 5 6 6 6 6 6 8 9 10 10 10
11 12 11 10 11 10 8 6 6 6 7 7 8 9 10 11 11 9 6 5 5 4 3 2 2 2 2 2 1 1 1 2 3 5 5 6 7 7 7 8 9 10 10
10 11 11 10 10 9 7 5 4 4 4 6 7 9 10 10 11 9 6 6 6 3 3 2 2 1 1 2 1 0 0 1 2 4 5 6 7 7 8 7 8 9 10
9 10 11 11 9 9 6 6 5 5 5 4 5 9 11 11 11 9 6 5 5 5 5 5 3 2 1 1 2 1 1 1 2 3 4 4 6 7 8 8 8 8 8
10 10 10 11 11 10 8 6 4 4 3 4 4 7 10 11 11 10 7 5 5 4 5 5 4 3 2 2 2 1 1 2 2 2 3 4 5 6 7 8 8 9 8
10 11 11 11 11 10 9 5 4 3 2 2 4 4 6 10 11 10 9 7 6 6 6 6 6 5 4 2 2 3 3 3 2 2 1 3 3 4 5 6 7 8 8
8 8 8 9 9 9 9 8 8 7 6 6 5 5 5 8 9 10 9 8 7 6 6 6 6 4 5 3 2 1 2 3 2 1 1 1 1 2 3 3 5 6 7
7 7 7 8 8 8 8 9 8 6 5 3 3 5 5 4 6 8 8 7 6 6 6 6 6 5 4 4 4 3 2 1 1 2 1 1 1 1 1 2 3 3 4
5 6 7 7 7 8 8 8 8 8 6 5 5 5 5 4 4 5 7 6 6 6 6 6 6 7 5 5 4 4 4 3 3 3 3 2 1 1 1 0 1 1 2
Wind_Direction
153 151 142 134 127 121 116 113 111 110 110 112 115 117 120 122 123 122 120 118 115 114 112 111 110 111 113 114 115 115 116 118 121 121 120 119 117 117 116 117 115 116 117
144 149 144 138 131 125 121 118 116 114 114 115 116 118 120 122 123 122 120 118 116 116 115 113 112 113 113 113 114 115 116 116 117 120 120 118 117 116 116 117 118 121 120
139 146 144 140 135 130 126 122 120 118 117 118 118 120 121 123 123 122 121 119 119 117 117 116 115 113 113 113 114 115 114 114 114 113 111 112 115 116 117 119 120 120 119
140 142 144 142 138 135 130 126 124 123 122 121 121 122 123 123 124 124 122 122 122 121 121 119 118 116 114 114 114 114 113 111 112 109 106 110 115 118 118 119 119 119 119
138 142 148 145 142 139 135 131 129 127 126 125 124 124 124 124 125 125 124 123 122 121 121 121 120 119 118 117 115 115 113 112 109 107 106 110 115 120 121 121 121 119 119
137 144 151 149 145 143 140 136 134 132 130 129 127 127 126 126 126 126 124 122 121 121 119 120 121 121 121 118 117 117 116 113 107 106 108 112 118 122 123 122 121 120 121
140 146 153 152 149 147 144 142 139 137 134 132 131 131 129 128 127 124 121 121 122 121 118 117 120 120 120 120 119 119 120 117 111 109 110 114 121 123 124 123 123 123 122
143 145 154 154 153 151 150 148 145 141 139 138 137 135 132 128 126 123 122 122 122 120 119 118 118 118 118 119 122 124 124 124 119 116 114 117 122 122 123 122 124 124 124
138 139 147 154 157 156 155 153 150 147 144 142 140 138 135 131 129 126 124 123 123 121 120 120 119 118 118 121 122 126 128 127 123 122 123 124 126 126 127 127 127 126 126
136 138 140 147 153 156 159 159 156 152 150 147 144 143 140 137 134 130 126 126 125 125 124 122 121 120 119 122 123 126 128 128 126 126 128 135 136 134 133 134 132 131 132
156 150 143 143 147 151 159 165 162 158 157 154 152 148 135 125 125 128 132 132 131 129 126 122 120 119 118 121 126 128 129 133 133 134 139 142 143 142 141 140 139 137 135
171 166 155 151 152 155 166 163 159 155 154 148 143 134 128 128 131 135 140 137 134 129 124 118 114 108 108 113 119 123 133 141 139 142 151 151 151 148 147 146 145 142 140
172 171 167 163 161 161 159 153 150 145 145 143 141 138 135 131 131 124 119 120 118 114 105 104 100 99 107 115 117 126 139 146 152 157 166 165 161 158 157 155 154 150 151
172 175 173 172 169 170 163 157 152 149 152 152 152 149 145 138 136 131 120 116 110 111 106 100 100 104 111 120 131 138 148 156 162 165 174 174 170 167 165 164 163 160 159
178 180 179 178 175 172 163 166 164 163 168 167 165 167 166 162 163 155 147 141 138 134 127 116 107 112 120 123 138 151 158 164 170 170 176 180 178 175 176 175 173 172 171
185 184 178 180 177 171 172 171 167 173 176 175 182 185 183 180 177 170 169 171 170 160 145 135 124 119 125 131 141 155 166 174 177 178 186 192 191 188 188 189 186 185 183
187 182 180 181 178 177 179 181 178 181 181 187 195 194 190 188 186 183 183 195 200 185 158 133 119 111 126 130 137 157 169 181 184 188 193 198 201 202 200 200 197 197 197
179 181 182 186 183 184 184 182 180 184 188 194 196 195 195 194 192 186 189 204 202 182 159 146 139 129 135 142 158 177 169 180 193 200 200 203 204 208 210 210 209 210 211
180 181 182 182 181 184 183 181 183 188 192 193 190 192 196 197 195 189 193 201 191 174 166 173 160 160 169 170 183 192 188 197 207 211 209 210 210 213 218 223 222 218 220
181 180 182 182 179 175 170 165 171 187 193 193 190 196 194 197 195 190 193 192 181 171 178 172 160 151 154 163 171 134 294 243 225 228 226 219 219 222 225 228 229 230 231
176 177 182 183 177 169 170 176 182 199 194 194 194 197 196 196 194 189 192 182 180 186 191 178 159 159 162 140 107 22 344 297 240 234 229 223 224 226 227 228 228 230 235
184 183 181 183 179 178 181 178 180 179 186 195 196 196 198 194 193 194 187 185 184 184 185 183 170 160 169 160 149 125 344 333 309 249 226 223 228 225 228 230 227 227 228
187 189 188 186 184 181 172 156 143 126 120 170 200 202 201 195 194 193 190 187 185 187 194 194 183 174 181 184 171 155 163 228 294 316 259 237 227 222 229 229 227 230 231
191 185 180 178 181 178 170 174 175 184 193 200 197 201 199 197 198 193 189 188 187 189 193 198 191 185 170 184 187 193 177 161 168 295 324 300 239 230 232 226 226 226 229
178 174 174 170 175 176 177 181 182 192 197 182 179 192 200 199 200 193 189 190 191 193 197 198 189 189 184 183 181 175 170 153 159 174 253 313 2 305 250 234 236 233 230
172 166 163 167 176 175 178 183 187 190 186 181 191 196 199 199 199 195 192 193 197 197 198 201 198 192 193 189 187 185 178 175 187 181 202 225 239 331 15 24 244 242 232
Height
1523 1526 1528 1530 1532 1533 1534 1535 1536 1537 1539 1540 1541 1542 1543 1544 1545 1546 1547 1548 1549 1550 1551 1552 1553 1554 1555 1556 1557 1558 1559 1560 1561 1561 1563 1564 1564 1565 1566 1568 1568 1570 1571
1523 1526 1529 1531 1533 1535 1536 1537 1538 1539 1540 1541 1543 1544 1545 1546 1547 1548 1549 1550 1551 1552 1553 1554 1555 1556 1556 1557 1558 1559 1560 1561 1562 1563 1564 1565 1566 1567 1568 1569 1570 1572 1573
1524 1527 1530 1532 1534 1536 1538 1539 1540 1541 1542 1543 1544 1545 1547 1547 1548 1550 1550 1552 1553 1553 1554 1555 1556 1557 1558 1559 1560 1561 1562 1563 1564 1565 1566 1567 1568 1569 1571 1572 1573 1574 1575
1525 1528 1531 1534 1536 1537 1539 1540 1541 1543 1544 1545 1546 1547 1548 1549 1550 1551 1552 1553 1554 1555 1556 1557 1558 1559 1560 1561 1562 1563 1564 1565 1566 1567 1568 1569 1570 1571 1573 1574 1575 1576 1577
1526 1529 1532 1535 1537 1539 1540 1542 1543 1544 1545 1547 1548 1549 1550 1551 1552 1553 1554 1555 1556 1557 1558 1559 1560 1561 1562 1563 1564 1565 1566 1567 1567 1569 1570 1571 1572 1574 1575 1576 1578 1579 1580
1527 1530 1533 1536 1538 1540 1542 1543 1545 1546 1547 1548 1549 1550 1551 1553 1554 1555 1555 1556 1557 1558 1559 1560 1562 1563 1564 1565 1566 1567 1568 1569 1570 1571 1572 1573 1575 1576 1577 1578 1580 1581 1582
1528 1531 1534 1537 1539 1541 1543 1544 1546 1547 1548 1550 1551 1552 1553 1554 1555 1556 1557 1558 1559 1560 1561 1562 1564 1565 1566 1567 1568 1569 1570 1571 1572 1573 1574 1576 1577 1578 1579 1580 1582 1583 1584
1529 1532 1535 1538 1540 1542 1544 1546 1547 1549 1550 1551 1552 1554 1555 1556 1557 1558 1559 1560 1561 1562 1563 1564 1566 1567 1568 1569 1570 1571 1572 1573 1574 1575 1576 1577 1579 1580 1581 1582 1583 1584 1586
1531 1534 1536 1539 1541 1543 1545 1547 1549 1550 1551 1553 1554 1555 1556 1557 1558 1560 1561 1562 1563 1564 1565 1567 1568 1569 1570 1571 1572 1573 1574 1575 1576 1577 1578 1579 1580 1582 1583 1584 1585 1586 1587
1532 1535 1537 1540 1542 1544 1546 1548 1550 1551 1553 1554 1555 1557 1558 1559 1560 1561 1563 1564 1565 1566 1567 1569 1570 1571 1572 1574 1574 1575 1576 1577 1578 1579 1580 1581 1582 1583 1584 1585 1587 1588 1589
1532 1535 1538 1540 1542 1544 1547 1549 1551 1552 1554 1555 1557 1558 1559 1560 1562 1563 1564 1566 1567 1568 1570 1571 1572 1573 1574 1575 1576 1577 1578 1579 1580 1581 1582 1583 1583 1585 1586 1587 1588 1589 1590
1531 1534 1537 1540 1543 1545 1547 1549 1551 1553 1555 1556 1558 1559 1561 1562 1563 1565 1566 1567 1569 1570 1571 1573 1574 1575 1576 1577 1578 1579 1580 1581 1581 1582 1583 1584 1585 1586 1587 1588 1589 1590 1591
1530 1534 1537 1540 1543 1545 1547 1549 1551 1553 1555 1557 1559 1560 1562 1563 1565 1566 1567 1569 1570 1572 1573 1574 1575 1577 1578 1579 1580 1580 1581 1582 1583 1583 1584 1585 1586 1587 1588 1589 1590 1591 1592
1530 1533 1537 1540 1543 1545 1547 1550 1552 1554 1556 1558 1559 1561 1563 1564 1566 1567 1569 1570 1572 1573 1574 1576 1577 1578 1579 1580 1581 1582 1582 1583 1584 1584 1585 1586 1587 1588 1588 1589 1590 1591 1592
1529 1532 1536 1539 1542 1545 1547 1549 1552 1554 1556 1558 1560 1562 1564 1565 1567 1568 1570 1571 1573 1574 1576 1577 1578 1579 1580 1581 1582 1583 1583 1584 1584 1585 1586 1586 1587 1588 1589 1590 1591 1592 1593
1528 1532 1535 1538 1541 1544 1547 1549 1552 1554 1557 1559 1561 1563 1564 1566 1568 1569 1571 1572 1574 1575 1577 1578 1579 1580 1581 1582 1582 1583 1584 1584 1585 1585 1586 1587 1588 1588 1589 1590 1591 1592 1593
1527 1531 1534 1537 1540 1543 1546 1549 1552 1554 1557 1559 1561 1563 1565 1566 1568 1570 1571 1573 1575 1576 1577 1578 1579 1580 1581 1582 1583 1583 1584 1585 1585 1586 1586 1587 1588 1588 1589 1590 1591 1592 1593
1527 1530 1533 1536 1539 1542 1545 1548 1551 1554 1556 1558 1560 1562 1564 1566 1568 1570 1572 1573 1575 1576 1577 1578 1579 1580 1581 1582 1583 1583 1584 1585 1585 1586 1586 1587 1587 1588 1589 1590 1591 1591 1592
1525 1528 1532 1535 1538 1541 1544 1547 1550 1552 1555 1557 1560 1562 1564 1566 1568 1569 1571 1573 1574 1576 1577 1578 1579 1580 1581 1582 1583 1583 1584 1584 1585 1585 1586 1586 1587 1588 1588 1589 1590 1591 1591
1524 1526 1530 1533 1536 1540 1543 1545 1548 1551 1553 1556 1558 1560 1563 1565 1567 1569 1570 1572 1574 1575 1576 1577 1579 1580 1581 1582 1582 1583 1583 1583 1584 1584 1585 1586 1586 1587 1588 1588 1589 1589 1590
1522 1525 1528 1531 1534 1537 1540 1543 1545 1548 1551 1554 1556 1559 1561 1563 1565 1567 1569 1571 1572 1574 1575 1576 1578 1579 1580 1581 1582 1582 1582 1582 1583 1583 1584 1585 1585 1586 1586 1587 1588 1588 1589
1520 1523 1526 1528 1531 1535 1538 1541 1543 1547 1549 1552 1554 1556 1559 1561 1564 1566 1567 1569 1571 1572 1574 1575 1576 1577 1579 1580 1580 1581 1581 1582 1581 1582 1582 1583 1584 1585 1585 1586 1587 1587 1587
1518 1521 1523 1526 1529 1532 1536 1539 1542 1545 1547 1550 1552 1554 1556 1559 1561 1563 1565 1567 1569 1570 1571 1573 1574 1576 1577 1578 1579 1580 1580 1579 1580 1580 1580 1581 1582 1583 1584 1584 1585 1585 1586
1517 1520 1522 1525 1528 1531 1534 1536 1539 1541 1544 1546 1549 1552 1554 1556 1558 1561 1563 1565 1566 1567 1569 1571 1572 1573 1575 1576 1577 1577 1579 1578 1579 1579 1579 1579 1580 1581 1582 1582 1583 1584 1584
1516 1518 1521 1523 1526 1529 1531 1534 1537 1539 1542 1545 1547 1549 1551 1554 1556 1558 1560 1562 1563 1565 1566 1568 1569 1571 1572 1573 1574 1575 1576 1576 1577 1577 1577 1578 1578 1579 1579 1580 1581 1582 1582
1515 1517 1520 1522 1524 1527 1530 1532 1535 1537 1540 1542 1544 1546 1548 1550 1552 1554 1556 1558 1560 1561 1563 1565 1566 1568 1569 1570 1571 1572 1573 1574 1574 1575 1575 1576 1576 1577 1577 1578 1579 1579 1580